<< Return to Weather Page
Fresno, CA
on Monday, March 31, 2014

Monday
Previous Day Next Day
Daily Summary
 ActualAverageRecord
Temperature
Mean Temperature - 58 °F  
Max Temperature 68 °F 70 °F 89 °F (1966)
Min Temperature 48 °F 47 °F 31 °F (1905)
Degree Days
Heating Degree Days 7    
Month to date heating degree days 88  
Since 1 July heating degree days 1433  
Cooling Degree Days 0    
Month to date cooling degree days 12  
Year to date cooling degree days 12  
Growing Degree Days8 (Base - )  
Moisture
Dew Point 44 °F   
Average Humidity 66    
Maximum Humidity 89    
Minimum Humidity 42    
Precipitation
Precipitation 0.18 in 0.05 in 1.08 in (1978)
Month to date precipitation 0.62 2.03  
Year to date precipitation 3.30 6.25  
Snow
Snow 0.00 in - - ()
Month to date snowfall 0.0  
Since 1 July snowfall 0.0  
Snow Depth 0.00 in   
Wind
Wind Speed 9 mph   
Max Wind Speed 21 mph   
Max Gust Speed 27 mph   
Visibility 10 miles   
Events Rain   

Key: T is trace of precipitation, MM is missing value
Source: NWS Daily Summary
Time(PDT)TemperatureDew PointHumidity Pressure Visibility Wind DirectionWind SpeedGust SpeedPrecipitationEvents Conditions
12:53 AM 52.0 °F 44.1 °F 74% 30.05 in 10.0 miles NW 8.1 mph - N/A   Clear
1:53 AM 50.0 °F 45.0 °F 83% 30.04 in 10.0 miles WNW 6.9 mph - N/A   Clear
2:53 AM 48.9 °F 45.0 °F 86% 30.06 in 10.0 miles WNW 8.1 mph - N/A   Partly Cloudy
3:53 AM 48.9 °F 44.1 °F 83% 30.05 in 10.0 miles NNW 5.8 mph - N/A   Overcast
4:53 AM 48.9 °F 44.1 °F 83% 30.03 in 10.0 miles NNE 3.5 mph - N/A   Mostly Cloudy
5:53 AM 48.0 °F 44.1 °F 86% 30.01 in 10.0 miles Calm Calm - N/A   Overcast
6:53 AM 48.0 °F 44.1 °F 86% 30.01 in 10.0 miles West 5.8 mph - N/A   Overcast
7:53 AM 50.0 °F 44.1 °F 80% 30.02 in 10.0 miles NE 4.6 mph - N/A   Overcast
8:53 AM 52.0 °F 45.0 °F 77% 30.03 in 10.0 miles Calm Calm - N/A   Overcast
9:53 AM 55.0 °F 45.0 °F 69% 30.02 in 10.0 miles SSE 10.4 mph - N/A   Overcast
10:53 AM 57.0 °F 45.0 °F 64% 30.01 in 10.0 miles SE 10.4 mph - N/A   Overcast
11:53 AM 62.1 °F 45.0 °F 53% 29.98 in 10.0 miles ESE 13.8 mph - N/A   Overcast
12:53 PM 66.0 °F 42.1 °F 42% 29.95 in 10.0 miles SSE 16.1 mph - N/A   Mostly Cloudy
1:53 PM 64.9 °F 42.1 °F 43% 29.93 in 10.0 miles South 18.4 mph 23.0 mph N/A   Mostly Cloudy
2:53 PM 66.9 °F 43.0 °F 42% 29.89 in 10.0 miles SSE 16.1 mph 20.7 mph N/A   Mostly Cloudy
3:53 PM 64.9 °F 42.1 °F 43% 29.86 in 10.0 miles South 13.8 mph 20.7 mph N/A   Mostly Cloudy
4:53 PM 64.9 °F 41.0 °F 42% 29.84 in 10.0 miles SSE 17.3 mph 24.2 mph N/A   Overcast
5:53 PM 62.1 °F 34.0 °F 35% 29.86 in 10.0 miles SSW 8.1 mph 26.5 mph 0.00 in Rain Light Rain
6:53 PM 55.9 °F 45.0 °F 67% 29.88 in 10.0 miles SSW 11.5 mph - 0.01 in Rain Light Rain
7:53 PM 52.0 °F 48.0 °F 86% 29.90 in 4.0 miles WNW 18.4 mph 21.9 mph 0.12 in Rain Rain
8:00 PM 50.0 °F 46.0 °F 86% 29.90 in 5.0 miles WNW 17.3 mph - 0.01 in Rain Light Rain
8:53 PM 48.9 °F 44.1 °F 83% 29.90 in 9.0 miles NE 6.9 mph - 0.05 in Rain Light Rain
9:53 PM 48.9 °F 45.0 °F 86% 29.92 in 10.0 miles NW 6.9 mph - 0.00 in   Mostly Cloudy
10:53 PM 48.9 °F 45.0 °F 86% 29.94 in 10.0 miles NW 3.5 mph - N/A   Overcast
11:53 PM 48.0 °F 44.1 °F 86% 29.95 in 10.0 miles WNW 4.6 mph - N/A   Scattered Clouds

Astronomy

Sunrise: 06:46 AM (PDT) Moon Rise: 07:14 AM (PDT) 3 / 31
Sunset: 07:20 PM (PDT) Moon Set: 08:42 PM (PDT) 3 / 31
Moon Phase
Mar. 31 Apr. 07 Apr. 15 Apr. 22 Apr. 29

Powered by the Weather Underground, Inc.